This is the latest recevied weather packets stored in our database for station/object SP5EB-3. If no packets are shown the sender has not sent any weather packets the latest 10 day(s).
| Time | Temp. | Humidity | Pressure | Rain* | Wind** | Luminosity | Snow |
|---|---|---|---|---|---|---|---|
| 1778135674 | 15.56° C | 90% | 1006.6 hPa | - | - | - | - |
| 1778135366 | 15.56° C | 99% | 1006.6 hPa | - | - | - | - |
| 1778135057 | 15° C | 99% | 1006.4 hPa | - | - | - | - |
| 1778134750 | 15° C | 99% | 1006.3 hPa | - | - | - | - |
| 1778134442 | 15° C | 99% | 1006.3 hPa | - | - | - | - |
| 1778134134 | 15° C | 1% | 1006.3 hPa | - | - | - | - |
| 1778133827 | 15° C | 19% | 1006.1 hPa | - | - | - | - |
| 1778133519 | 14.44° C | 99% | 1006.1 hPa | - | - | - | - |
| 1778133211 | 14.44° C | 99% | 1006 hPa | - | - | - | - |
| 1778132903 | 14.44° C | 99% | 1006.1 hPa | - | - | - | - |
| 1778132596 | 14.44° C | 99% | 1006.1 hPa | - | - | - | - |
| 1778132288 | 15° C | 21% | 1006.2 hPa | - | - | - | - |
| 1778131981 | 15° C | 1% | 1006.1 hPa | - | - | - | - |
| 1778131673 | 15° C | 1% | 1006.2 hPa | - | - | - | - |
| 1778131365 | 15° C | 1% | 1006.2 hPa | - | - | - | - |
| 1778131057 | 15° C | 99% | 1006.2 hPa | - | - | - | - |
| 1778130749 | 15° C | 99% | 1006 hPa | - | - | - | - |
| 1778130442 | 15.56° C | 99% | 1006 hPa | - | - | - | - |
| 1778129827 | 15.56° C | 99% | 1005.8 hPa | - | - | - | - |
| 1778129518 | 15.56° C | 99% | 1005.8 hPa | - | - | - | - |
| 1778129210 | 15.56° C | 99% | 1005.6 hPa | - | - | - | - |
| 1778128903 | 15.56° C | 99% | 1005.6 hPa | - | - | - | - |
| 1778128595 | 15° C | 99% | 1005.5 hPa | - | - | - | - |
| 1778127671 | 15° C | 6% | 1005.1 hPa | - | - | - | - |
| 1778127364 | 15° C | 70% | 1005.1 hPa | - | - | - | - |
* Rain since midnight (hover to see other rain measurements)
** Current wind speed in m/s (hover to see current wind gust speed)